Location: El Manguito
(10.2358°N, 67.3634°W)
Time: 20:26:42
(UTC+00:00)

Aurora 2 Rocket - Pass Details

Date: 07 December 2024
Orbit: 386 x 1590 km, 25.0° (Epoch: 12 January)

Event Time Altitude Azimuth Distance (km) Brightness Sun altitude
Rises 00:58:18 0° 231° (SW) 4,553 7.8 -40.1°
Reaches altitude 10° 01:01:24 10° 226° (SW) 3,672 7.1 -40.8°
Enters shadow 01:08:47 46° 188° (S) 2,035 5.1 -42.5°
